Weather in Uspenka

Russia / Tyumen Oblast     56°42′07″N   68°30′24″E
temp.,
°C
wind,
m/s
gust,
m/s
humid.,
%
clouds,
%
prec.,
mm/h
press.,
hPa
HPBL,
m
9 may, sun
sun923:00+15se3337100 0.0 101624
02:00+14e2244100 0.0 101618
05:00+13e3449100 0.0 101658
08:00+16e5849100 0.0 1017360
11:00+20e7941100 0.0 1018941
14:00+22e893496 0.0 10181848
17:00+20ene793698 0.0 10181925
20:00+16ene6124595 0.0 1020511
10 may, mon
mon1023:00+13ene61349100 0.0 1021541
02:00+11ene6125193 0.0 1022518
05:00+9ene51157100 0.0 1023358
08:00+11ene61048100 0.0 1025744
11:00+15ene793566 0.0 10251415
14:00+17ene683170 0.0 10251716
17:00+18ene573126 0.0 10251833
20:00+14e33450 0.0 102528
11 may, tue
tue1123:00+11ene22500 0.0 102614
02:00+9ne11570 0.0 102710
05:00+9nne22640 0.0 102814
08:00+14nne23500 0.0 1028356
11:00+18nne34380 0.0 10281465
14:00+20n33300 0.0 10271741
17:00+21nnw23278 0.0 10261806
20:00+17wnw2239100 0.0 102617
12 may, wed
wed1223:00+15wnw3339100 0.0 102628
02:00+12wnw344718 0.0 102654
05:00+11wnw4853100 0.0 1026123
08:00+14wnw385498 0.0 1025271
11:00+18nnw465841 0.0 10251062
14:00+20nnw783373 0.1 10242152
17:00+19n6836100 0.1 10252136
20:00+14nnw585994 0.0 1026396
13 may, thu
thu1323:00+10nnw3872100 0.0 1026208
02:00+9nnw34807 0.0 102678
05:00+9wnw228216 0.0 102635
08:00+12w3571100 0.0 1026191
11:00+20wnw5747100 0.0 10241394
14:00+23nw6940100 0.0 10222408
17:00+20nnw51054100 0.0 1023774
20:00+17n410617 0.0 1024246